Hourly Data Report for October 18, 2014

All times are specified in Local Standard Time (LST). Add 1 hour to adjust for Daylight Saving Time where and when it is observed.

IQALUIT CLIMATE
NUNAVUT

63°44'50.000" N
68°32'40.000" W
33.50 m
2402592
71321
XFB

Download Data

Hourly Data (October 2014)
Hourly Data Report for October 18, 2014
Temp Definition
°C
Dew Point Temp Definition
°C
Rel Hum Definition
%
Wind Dir Definition
10's deg

Wind Spd Definition
km/h
Visibility Definition
km
Stn Press Definition
kPa
Hmdx Definition


Wind Chill Definition


Weather Definition


TIME
00:00 -9.7 -11.2 89 32 15   101.39   -16 LegendNANA
01:00 -8.9 -10.1 91 35 15   101.36   -15 LegendNANA
02:00 -7.1 -8.8 88 35 36   101.31   -16 LegendNANA
03:00 -9.2 -10.4 91 29 11   101.31   -15 LegendNANA
04:00 -7.9 -9.6 87 36 43   101.24   -18 LegendNANA
05:00 -7.5 -9.2 88 35 35   101.27   -17 LegendNANA
06:00 -8.0 -9.8 87 35 32   101.29   -17 LegendNANA
07:00 -8.9 -10.5 89 33 19   101.36   -16 LegendNANA
08:00 -9.3 -11.1 87 34 20   101.40   -17 LegendNANA
09:00 -9.2 -11.2 86 34 18   101.41   -16 LegendNANA
10:00 -8.8 -10.7 86 35 26   101.39   -17 LegendNANA
11:00 -8.4 -10.7 84 33 19   101.38   -16 LegendNANA
12:00 -7.9 -10.2 83 35 29   101.36   -17 LegendNANA
13:00 -7.6 -9.9 84 35 38   101.38   -17 LegendNANA
14:00 -8.0 -10.2 84 34 30   101.43   -17 LegendNANA
15:00 -8.3 -10.4 85 34 33   101.46   -18 LegendNANA
16:00 -10.4 -12.4 85 33 27   101.49   -20 LegendNANA
17:00 -10.1 -12.3 84 32 25   101.52   -19 LegendNANA
18:00 -11.0 -13.2 84 32 17   101.58   -18 LegendNANA
19:00 -11.6 -13.7 84 32 19   101.64   -20 LegendNANA
20:00 -12.2 -14.1 86 33 17   101.65   -20 LegendNANA
21:00 -12.2 -14.1 86 32 15   101.66   -19 LegendNANA
22:00 -13.2 -15.2 84 33 15   101.68   -21 LegendNANA
23:00 -13.0 -14.9 85 33 18   101.65   -21 LegendNANA

Notes on Data Quality.

Legend

  • E = Estimated
  • M = Missing
  • NA = Not Available
  • ‡ = Partner data that is not subject to review by the National Climate Archives
Date modified: